Simultaneous Nadir Overpasses (SNOs) Predictions

Prediction of SNOs between GOES-16 and TERRA Satellite Orbit:

Table of predicted SNOs for the next 14.0 days since TLE Epoch: 5/6/2023
Index Date Time (GOES-16) GOES-16 Lat,Lon TERRA Lat,Lon Distance(km) Time Diff (sec)
1 05/07/2023 14:59:11 0.04, -75.21 -0.48, -72.72 281.98 80
2 05/08/2023 03:19:33 -0.03, -75.20 -0.53, -77.68 281.42 80
3 05/10/2023 03:00:38 -0.03, -75.20 0.27, -73.75 165.24 80
4 05/10/2023 15:20:51 0.02, -75.22 0.75, -78.66 391.47 80
5 05/12/2023 15:07:16 0.02, -75.23 -0.08, -74.74 56.18 80
6 05/15/2023 03:11:22 -0.01, -75.25 -0.12, -75.76 57.59 80
7 05/17/2023 02:52:26 -0.01, -75.29 0.71, -71.83 392.47 80
8 05/17/2023 15:12:38 0.01, -75.31 0.34, -76.74 163.38 80
9 05/19/2023 14:59:02 0.01, -75.34 -0.52, -72.81 287.49 80
10 05/20/2023 03:19:23 -0.01, -75.34 -0.53, -77.76 274.65 80
